GFSGBSN_prec_snow_246.txt.gz
Snowfall_Accumulation
0.0 0.0 0.0 0.0 0.0 0.0 0.0 0.0 0.0 0.0 0.0 0.0 0.0 0.0 0.0 0.0 0.0 0.0 0.0 0.0 0.0 0.0 0.0 0.0 0.0 0.0 0.0 0.0 0.0 0.0 0.0 0.0 0.0 0.0 0.0 0.0 0.0 0.0 0.0 0.0 0.0 0.0 0.0 0.0 0.0 0.0 0.0
0.0 0.0 0.0 0.0 0.0 0.0 0.0 0.0 0.0 0.0 0.0 0.0 0.0 0.0 0.0 0.0 0.0 0.0 0.0 0.0 0.0 0.0 0.0 0.0 0.0 0.0 0.0 0.0 0.0 0.0 0.0 0.0 0.0 0.0 0.0 0.0 0.0 0.0 0.0 0.0 0.0 0.0 0.0 0.0 0.0 0.0 0.0
0.0 0.0 0.0 0.0 0.0 0.0 0.0 0.0 0.0 0.0 0.0 0.0 0.0 0.0 0.0 0.0 0.0 0.0 0.0 0.0 0.0 0.0 0.0 0.0 0.0 0.0 0.0 0.0 0.0 0.0 0.0 0.0 0.0 0.0 0.0 0.0 0.0 0.0 0.0 0.0 0.0 0.0 0.0 0.0 0.0 0.0 0.0
0.0 0.0 0.0 0.0 0.0 0.0 0.0 0.0 0.0 0.0 0.0 0.0 0.0 0.0 0.0 0.0 0.0 0.0 0.0 0.0 0.0 0.0 0.0 0.0 0.0 0.0 0.0 0.0 0.0 0.0 0.0 0.0 0.0 0.0 0.0 0.0 0.0 0.0 0.0 0.0 0.0 0.0 0.0 0.0 0.0 0.0 0.0
0.0 0.0 0.0 0.0 0.0 0.0 0.0 0.0 0.0 0.0 0.0 0.0 0.0 0.0 0.0 0.0 0.0 0.0 0.0 0.0 0.0 0.0 0.0 0.0 0.0 0.0 0.0 0.0 0.0 0.0 0.0 0.0 0.0 0.0 0.0 0.0 0.0 0.0 0.0 0.0 0.0 0.0 0.0 0.0 0.0 0.0 0.0
0.0 0.0 0.0 0.0 0.0 0.0 0.0 0.0 0.0 0.0 0.0 0.0 0.0 0.0 0.0 0.0 0.0 0.0 0.0 0.0 0.0 0.0 0.0 0.0 0.0 0.0 0.0 0.0 0.0 0.0 0.0 0.0 0.0 0.0 0.0 0.0 0.0 0.0 0.0 0.0 0.0 0.0 0.0 0.0 0.0 0.0 0.0
0.0 0.0 0.0 0.0 0.0 0.0 0.0 0.0 0.0 0.0 0.0 0.0 0.0 0.0 0.0 0.0 0.0 0.0 0.0 0.0 0.0 0.0 0.0 0.0 0.0 0.0 0.0 0.0 0.0 0.0 0.0 0.0 0.0 0.0 0.0 0.0 0.0 0.0 0.0 0.0 0.0 0.0 0.0 0.0 0.0 0.0 0.0
0.0 0.0 0.0 0.0 0.0 0.0 0.0 0.0 0.0 0.0 0.0 0.0 0.0 0.0 0.0 0.0 0.0 0.0 0.0 0.0 0.0 0.0 0.6 0.0 0.0 0.0 0.0 0.0 0.0 0.0 0.0 0.0 0.0 0.0 0.0 0.0 0.0 0.0 0.0 0.0 0.0 0.0 0.0 0.0 0.0 0.0 0.0
0.0 0.0 0.0 0.0 0.0 0.0 0.0 0.0 0.0 0.0 0.0 0.0 0.0 0.0 0.0 0.0 0.0 0.0 0.0 0.0 0.0 0.0 2.7 0.0 0.0 0.0 0.0 0.0 0.0 0.0 0.0 0.0 0.0 0.2 0.0 0.0 0.0 0.0 0.0 0.0 0.0 0.0 0.2 0.0 0.0 0.0 0.0
0.0 0.0 0.0 0.0 0.0 0.0 0.0 0.0 0.0 0.0 0.0 0.0 0.0 0.0 0.0 0.0 0.0 0.0 0.0 0.0 0.0 0.0 6.9 0.0 0.2 0.0 0.0 0.0 0.0 0.0 0.0 0.0 0.0 0.0 0.3 0.1 0.0 0.0 0.0 0.0 0.0 0.0 0.0 0.0 0.0 0.0 0.0
0.0 0.0 0.0 0.0 0.0 0.0 0.0 0.0 0.0 0.0 0.0 0.0 0.0 0.0 0.0 0.0 0.0 0.0 0.0 0.0 0.0 0.0 34.5 0.3 0.0 0.0 0.0 0.0 0.0 0.0 0.0 0.0 0.0 0.0 0.4 0.4 0.1 0.2 0.2 0.0 0.0 0.0 0.0 0.0 0.0 0.0 0.0
0.0 0.0 0.0 0.0 0.0 0.0 0.0 0.0 0.0 0.0 0.0 0.0 0.0 0.0 0.0 0.0 0.0 0.0 0.0 0.0 0.0 37.3 45.6 1.3 0.0 0.0 0.0 0.0 0.0 0.0 0.0 0.0 0.0 0.0 0.0 0.0 0.0 0.0 0.5 0.0 0.0 0.0 0.0 0.0 0.0 0.5 1.2
0.0 0.0 0.0 0.0 0.0 0.0 0.0 0.0 0.0 0.0 0.0 0.0 0.0 0.0 0.0 0.0 0.0 0.0 0.0 0.0 58.6 61.5 0.0 2.1 0.0 0.0 0.0 0.0 0.0 0.2 0.9 0.3 0.2 2.3 1.6 0.0 0.4 0.0 0.0 0.4 0.0 0.0 0.0 6.5 5.3 4.6 2.8
0.0 0.0 0.0 0.0 0.0 0.0 0.0 0.0 0.0 0.0 0.0 0.0 0.0 0.0 0.0 0.0 0.0 0.0 0.0 13.3 70.5 12.0 3.6 0.1 0.0 0.0 0.7 0.0 0.0 0.0 0.5 0.8 0.0 0.0 0.6 2.3 2.4 0.7 0.0 0.7 0.1 0.0 0.0 2.9 5.1 1.8 0.1
0.0 0.0 0.0 0.0 0.0 0.0 0.0 0.0 0.0 0.0 0.0 0.0 0.0 0.0 0.0 0.0 0.0 0.0 6.3 85.1 51.0 1.3 0.0 0.0 0.0 1.8 2.3 0.7 0.2 0.0 1.6 2.0 1.5 0.1 4.3 5.3 2.2 0.0 0.0 0.0 0.0 0.4 2.9 0.4 4.9 1.3 1.9
0.0 0.0 0.0 0.0 0.0 0.0 0.0 0.0 0.0 0.0 0.0 0.0 0.0 0.0 0.0 0.0 0.0 0.0 36.7 64.0 23.7 0.0 0.9 0.0 2.3 1.2 2.5 2.0 1.8 2.3 1.6 4.1 2.5 2.4 0.0 3.3 8.5 0.7 0.1 0.0 0.0 1.0 1.1 6.3 11.3 25.3 12.3
0.0 0.0 0.0 0.0 0.0 0.0 0.0 0.0 0.0 0.0 0.0 0.0 0.0 8.8 0.0 0.0 0.0 2.5 62.9 18.8 8.3 0.0 0.0 2.2 2.4 4.3 1.0 2.0 5.1 4.6 4.6 2.7 4.7 1.9 0.6 1.9 8.4 1.6 0.1 2.0 3.1 0.6 3.9 5.3 6.1 14.3 15.6
0.0 0.0 0.0 0.0 0.0 0.0 0.0 0.0 0.0 0.0 0.0 0.0 0.0 40.8 0.0 0.0 32.5 39.1 39.6 15.3 1.8 0.1 0.0 2.7 1.7 1.6 3.5 2.9 3.2 5.3 7.1 5.0 0.9 1.5 3.1 3.5 7.7 10.2 1.2 0.4 0.1 0.5 7.7 11.8 43.1 37.7 28.1
0.0 0.0 0.0 0.0 0.0 0.0 0.0 0.0 0.0 0.0 0.0 0.0 16.3 22.9 0.0 0.0 55.1 39.6 12.3 15.7 5.7 4.2 3.1 5.8 3.5 0.9 1.6 2.1 7.1 4.5 4.1 0.0 2.4 5.6 6.9 7.0 10.9 13.7 6.3 1.6 0.1 6.8 9.6 9.7 14.3 30.8 29.4
0.0 0.0 0.0 0.0 0.0 0.0 0.0 0.0 0.0 0.0 0.0 0.0 22.3 53.6 13.5 0.0 7.9 11.3 13.6 15.3 10.0 0.0 2.8 0.5 7.2 0.0 5.4 7.8 2.8 5.9 4.1 2.8 6.5 5.9 2.4 4.2 7.1 8.7 9.7 6.9 6.5 7.3 3.8 7.1 17.8 28.3 19.0
0.0 0.0 0.0 0.0 0.0 0.0 0.0 0.0 0.0 0.0 0.0 0.0 38.5 42.7 0.0 36.4 22.0 10.5 11.0 10.1 7.8 7.9 4.6 0.5 6.5 3.5 4.3 10.6 7.1 4.5 4.6 6.2 9.1 0.4 3.7 12.7 12.4 5.6 4.7 1.9 1.4 3.1 3.6 2.7 11.2 6.8 12.6
0.0 0.0 0.0 0.0 0.0 0.0 0.0 0.0 0.0 0.0 0.0 0.0 75.0 21.1 4.1 7.0 4.0 13.8 9.8 13.6 5.6 5.5 11.0 7.8 8.1 3.5 2.9 6.6 3.5 7.4 4.9 2.8 8.4 0.3 9.1 11.8 14.6 9.4 12.9 3.4 4.8 7.7 5.0 3.2 5.2 4.6 4.3
0.0 0.0 0.0 0.0 0.0 0.0 0.0 0.0 0.0 0.0 0.0 13.9 6.7 0.0 13.7 5.8 4.5 10.8 12.6 9.5 7.6 10.3 3.3 2.1 4.6 6.5 5.5 4.2 0.9 0.6 0.2 0.1 1.0 6.2 7.4 13.5 19.7 18.9 19.1 4.7 6.8 14.2 6.7 4.3 3.6 1.6 1.5
0.0 0.0 0.0 0.0 0.0 0.0 0.0 0.0 0.0 0.0 0.0 0.0 0.0 0.0 19.7 23.0 9.1 6.2 4.3 2.5 5.9 6.9 15.4 3.7 2.5 5.9 0.0 0.1 0.0 0.0 0.0 2.2 0.0 2.6 2.5 13.7 16.0 23.1 23.6 9.5 22.0 6.0 3.2 1.7 0.7 0.6 0.3
0.0 0.0 0.0 0.0 0.0 0.0 0.0 0.0 0.0 0.0 0.0 0.0 0.0 0.0 15.1 22.9 4.5 6.2 4.6 4.7 3.1 3.8 7.4 8.5 4.0 0.3 0.0 1.1 11.7 20.6 18.7 17.9 12.9 6.8 6.6 5.0 9.3 23.3 22.3 15.9 9.6 1.8 0.3 0.6 6.6 4.5 0.4
0.0 0.0 0.0 0.0 0.0 0.0 0.0 0.0 0.0 0.0 0.0 0.0 0.0 0.0 2.0 27.9 9.8 0.7 4.7 1.5 4.2 8.1 8.2 6.1 2.9 0.0 0.0 8.8 22.2 26.6 17.1 10.6 7.9 5.5 3.6 4.6 7.2 19.0 23.7 19.1 10.9 0.2 0.1 0.0 0.2 12.8 0.5
0.0 0.0 0.0 0.0 0.0 0.0 0.0 0.0 0.0 0.0 0.0 0.0 0.0 0.0 0.4 35.6 2.0 0.8 5.7 6.7 0.9 2.7 9.3 2.6 2.4 5.3 0.4 20.6 31.3 23.6 13.4 3.9 5.9 2.8 8.2 12.5 19.6 27.9 19.4 17.6 3.4 0.6 0.2 0.0 12.4 11.8 4.7
0.0 0.0 0.0 0.0 0.0 0.0 0.0 0.0 0.0 0.0 0.0 0.0 0.0 0.0 0.0 35.9 4.7 0.0 0.0 0.2 2.7 2.1 10.0 4.5 14.6 10.4 16.3 19.2 18.8 15.3 16.5 10.6 8.1 3.0 2.9 5.2 18.3 19.0 17.8 23.9 10.3 0.0 1.0 4.8 3.0 5.5 7.3
0.0 0.0 0.0 0.0 0.0 0.0 0.0 0.0 0.0 0.0 0.0 0.0 0.7 0.0 0.0 8.7 9.4 0.0 0.0 0.0 0.0 0.0 1.8 3.8 6.4 8.7 11.8 16.1 13.8 10.5 10.4 7.2 9.0 11.3 1.7 6.8 6.2 12.8 12.9 10.0 2.4 0.8 1.3 1.8 1.3 4.4 6.7

GFSGBSN_prec_snow_249.txt.gz
Snowfall_Accumulation
0.0 0.0 0.0 0.0 0.0 0.0 0.0 0.0 0.0 0.0 0.0 0.0 0.0 0.0 0.0 0.0 0.0 0.0 0.0 0.0 0.0 0.0 0.0 0.0 0.0 0.0 0.0 0.0 0.0 0.0 0.0 0.0 0.0 0.0 0.0 0.0 0.0 0.0 0.0 0.0 0.0 0.0 0.0 0.0 0.0 0.0 0.0
0.0 0.0 0.0 0.0 0.0 0.0 0.0 0.0 0.0 0.0 0.0 0.0 0.0 0.0 0.0 0.0 0.0 0.0 0.0 0.0 0.0 0.0 0.0 0.0 0.0 0.0 0.0 0.0 0.0 0.0 0.0 0.0 0.0 0.0 0.0 0.0 0.0 0.0 0.0 0.0 0.0 0.0 0.0 0.0 0.0 0.0 0.0
0.0 0.0 0.0 0.0 0.0 0.0 0.0 0.0 0.0 0.0 0.0 0.0 0.0 0.0 0.0 0.0 0.0 0.0 0.0 0.0 0.0 0.0 0.0 0.0 0.0 0.0 0.0 0.0 0.0 0.0 0.0 0.0 0.0 0.0 0.0 0.0 0.0 0.0 0.0 0.0 0.0 0.0 0.0 0.0 0.0 0.0 0.0
0.0 0.0 0.0 0.0 0.0 0.0 0.0 0.0 0.0 0.0 0.0 0.0 0.0 0.0 0.0 0.0 0.0 0.0 0.0 0.0 0.0 0.0 0.0 0.0 0.0 0.0 0.0 0.0 0.0 0.0 0.0 0.0 0.0 0.0 0.0 0.0 0.0 0.0 0.0 0.0 0.0 0.0 0.0 0.0 0.0 0.0 0.0
0.0 0.0 0.0 0.0 0.0 0.0 0.0 0.0 0.0 0.0 0.0 0.0 0.0 0.0 0.0 0.0 0.0 0.0 0.0 0.0 0.0 0.0 0.0 0.0 0.0 0.0 0.0 0.0 0.0 0.0 0.0 0.0 0.0 0.0 0.0 0.0 0.0 0.0 0.0 0.0 0.0 0.0 0.0 0.0 0.0 0.0 0.0
0.0 0.0 0.0 0.0 0.0 0.0 0.0 0.0 0.0 0.0 0.0 0.0 0.0 0.0 0.0 0.0 0.0 0.0 0.0 0.0 0.0 0.0 0.0 0.0 0.0 0.0 0.0 0.0 0.0 0.0 0.0 0.0 0.0 0.0 0.0 0.0 0.0 0.0 0.0 0.0 0.0 0.0 0.0 0.0 0.0 0.0 0.0
0.0 0.0 0.0 0.0 0.0 0.0 0.0 0.0 0.0 0.0 0.0 0.0 0.0 0.0 0.0 0.0 0.0 0.0 0.0 0.0 0.0 0.0 0.0 0.0 0.0 0.0 0.0 0.0 0.0 0.0 0.0 0.0 0.0 0.0 0.0 0.0 0.0 0.0 0.0 0.0 0.0 0.0 0.0 0.0 0.0 0.0 0.0
0.0 0.0 0.0 0.0 0.0 0.0 0.0 0.0 0.0 0.0 0.0 0.0 0.0 0.0 0.0 0.0 0.0 0.0 0.0 0.0 0.0 0.0 0.6 0.0 0.0 0.0 0.0 0.0 0.0 0.0 0.0 0.0 0.0 0.0 0.0 0.0 0.0 0.0 0.0 0.0 0.0 0.0 0.0 0.0 0.0 0.0 0.0
0.0 0.0 0.0 0.0 0.0 0.0 0.0 0.0 0.0 0.0 0.0 0.0 0.0 0.0 0.0 0.0 0.0 0.0 0.0 0.0 0.0 0.0 2.7 0.0 0.0 0.0 0.0 0.0 0.0 0.0 0.0 0.0 0.0 0.2 0.0 0.0 0.0 0.0 0.0 0.0 0.0 0.0 0.5 0.0 0.2 0.0 0.0
0.0 0.0 0.0 0.0 0.0 0.0 0.0 0.0 0.0 0.0 0.0 0.0 0.0 0.0 0.0 0.0 0.0 0.0 0.0 0.0 0.0 0.0 6.9 0.0 0.2 0.0 0.0 0.0 0.0 0.0 0.0 0.0 0.0 0.0 0.3 0.1 0.0 0.0 0.0 0.0 0.0 0.0 0.0 0.0 0.0 0.0 0.5
0.0 0.0 0.0 0.0 0.0 0.0 0.0 0.0 0.0 0.0 0.0 0.0 0.0 0.0 0.0 0.0 0.0 0.0 0.0 0.0 0.0 0.0 34.5 0.3 0.0 0.0 0.0 0.0 0.0 0.0 0.0 0.0 0.0 0.0 0.4 0.4 0.1 0.2 0.6 0.2 0.3 0.0 0.0 0.0 0.0 0.0 0.0
0.0 0.0 0.0 0.0 0.0 0.0 0.0 0.0 0.0 0.0 0.0 0.0 0.0 0.0 0.0 0.0 0.0 0.0 0.0 0.0 0.0 37.3 45.6 1.3 0.0 0.0 0.0 0.0 0.0 0.0 0.0 0.0 0.0 0.0 0.0 0.0 0.0 0.0 0.5 0.0 0.0 0.0 0.0 0.0 0.0 0.5 2.0
0.0 0.0 0.0 0.0 0.0 0.0 0.0 0.0 0.0 0.0 0.0 0.0 0.0 0.0 0.0 0.0 0.0 0.0 0.0 0.0 58.6 61.5 0.0 2.1 0.0 0.0 0.0 0.0 0.0 0.2 0.9 0.3 0.2 2.3 1.6 0.0 0.4 0.0 0.0 0.4 0.0 0.4 0.2 6.5 5.3 4.9 3.1
0.0 0.0 0.0 0.0 0.0 0.0 0.0 0.0 0.0 0.0 0.0 0.0 0.0 0.0 0.0 0.0 0.0 0.0 0.0 13.3 70.5 12.0 3.6 0.1 0.0 0.0 0.7 0.0 0.0 0.0 0.5 0.8 0.0 0.0 0.6 2.3 2.4 0.7 0.1 1.8 0.1 0.0 0.0 2.9 5.1 1.8 0.1
0.0 0.0 0.0 0.0 0.0 0.0 0.0 0.0 0.0 0.0 0.0 0.0 0.0 0.0 0.0 0.0 0.0 0.0 6.3 85.1 51.0 1.3 0.0 0.0 0.0 1.8 2.3 0.7 0.2 0.0 1.6 2.0 1.5 0.1 4.3 5.3 2.2 0.0 0.5 0.0 0.0 0.8 3.5 0.4 5.0 1.3 1.9
0.0 0.0 0.0 0.0 0.0 0.0 0.0 0.0 0.0 0.0 0.0 0.0 0.0 0.0 0.0 0.0 0.0 0.0 36.7 64.0 23.7 0.0 0.9 0.0 2.3 1.2 2.5 2.0 1.8 2.3 1.6 4.1 2.5 2.4 0.0 3.3 8.5 0.7 0.1 0.0 0.0 1.0 1.1 7.2 11.3 25.3 12.6
0.0 0.0 0.0 0.0 0.0 0.0 0.0 0.0 0.0 0.0 0.0 0.0 0.0 8.8 0.0 0.0 0.0 2.5 62.9 18.8 8.3 0.0 0.0 2.2 2.4 4.3 1.0 2.0 5.1 4.6 4.6 2.7 4.7 1.9 0.6 1.9 8.4 1.6 0.1 2.0 3.1 0.6 3.9 7.3 7.5 14.5 16.0
0.0 0.0 0.0 0.0 0.0 0.0 0.0 0.0 0.0 0.0 0.0 0.0 0.0 40.8 0.0 0.0 32.5 39.1 39.6 15.3 1.8 0.1 0.0 2.7 1.7 1.6 3.5 2.9 3.2 5.3 7.1 5.0 0.9 1.5 3.1 3.5 7.7 10.2 1.2 0.4 0.1 0.5 7.7 11.8 44.9 38.9 28.1
0.0 0.0 0.0 0.0 0.0 0.0 0.0 0.0 0.0 0.0 0.0 0.0 16.3 22.9 0.0 0.0 55.1 39.6 12.3 15.7 5.7 4.2 3.1 5.8 3.5 0.9 1.6 2.1 7.1 4.5 4.1 0.0 2.4 5.6 6.9 7.0 10.9 13.7 6.3 1.6 0.1 6.8 9.6 9.7 14.3 31.1 29.6
0.0 0.0 0.0 0.0 0.0 0.0 0.0 0.0 0.0 0.0 0.0 0.0 22.3 53.6 13.5 0.0 7.9 11.3 13.6 15.3 10.0 0.0 2.8 0.5 7.2 0.0 5.4 7.8 2.8 5.9 4.1 2.8 6.5 5.9 2.4 4.2 7.1 8.7 9.7 6.9 6.5 7.3 3.8 7.1 17.8 28.3 19.0
0.0 0.0 0.0 0.0 0.0 0.0 0.0 0.0 0.0 0.0 0.0 0.0 38.5 42.7 0.0 36.4 22.0 10.5 11.0 10.1 7.8 7.9 4.6 0.5 6.5 3.5 4.3 10.6 7.1 4.5 4.6 6.2 9.1 0.4 3.7 12.7 12.4 5.6 4.7 1.9 1.4 3.1 3.6 2.7 11.2 6.8 12.6
0.0 0.0 0.0 0.0 0.0 0.0 0.0 0.0 0.0 0.0 0.0 0.0 75.0 21.1 4.1 7.0 4.0 13.8 9.8 13.6 5.6 5.5 11.0 7.8 8.1 3.5 2.9 6.6 3.5 7.4 4.9 2.8 8.4 0.3 9.1 11.8 14.6 9.4 12.9 3.4 4.8 7.7 5.0 3.2 5.2 4.6 4.3
0.0 0.0 0.0 0.0 0.0 0.0 0.0 0.0 0.0 0.0 0.0 13.9 6.7 0.0 13.7 5.8 4.5 10.8 12.6 9.5 7.6 10.3 3.3 2.1 4.6 6.5 5.5 4.2 0.9 0.6 0.2 0.1 1.0 6.2 7.4 13.5 19.7 18.9 19.1 4.7 6.8 14.2 6.7 4.3 3.6 1.6 1.5
0.0 0.0 0.0 0.0 0.0 0.0 0.0 0.0 0.0 0.0 0.0 0.0 0.0 0.0 19.7 23.0 9.1 6.2 4.3 2.5 5.9 6.9 15.4 3.7 2.5 5.9 0.0 0.1 0.0 0.0 0.0 2.2 0.0 2.6 2.5 13.7 16.0 23.1 23.6 9.5 22.0 6.0 3.2 1.7 0.7 0.6 0.3
0.0 0.0 0.0 0.0 0.0 0.0 0.0 0.0 0.0 0.0 0.0 0.0 0.0 0.0 15.1 22.9 4.5 6.2 4.6 4.7 3.1 3.8 7.4 8.5 4.0 0.3 0.0 1.1 11.7 20.6 18.7 17.9 12.9 6.8 6.6 5.0 9.3 23.3 22.3 15.9 9.6 1.8 0.3 0.6 6.6 4.5 0.4
0.0 0.0 0.0 0.0 0.0 0.0 0.0 0.0 0.0 0.0 0.0 0.0 0.0 0.0 2.0 27.9 9.8 0.7 4.7 1.5 4.2 8.1 8.2 6.1 2.9 0.0 0.0 8.8 22.2 26.6 17.1 10.6 7.9 5.5 3.6 4.6 7.2 19.0 23.7 19.1 10.9 0.2 0.1 0.0 0.2 12.8 0.5
0.0 0.0 0.0 0.0 0.0 0.0 0.0 0.0 0.0 0.0 0.0 0.0 0.0 0.0 0.4 35.6 2.0 0.8 5.7 6.7 0.9 2.7 9.3 2.6 2.4 5.3 0.4 20.6 31.3 23.6 13.4 3.9 5.9 2.8 8.2 12.5 19.6 27.9 19.4 17.6 3.4 0.6 0.2 0.0 12.4 11.8 4.7
0.0 0.0 0.0 0.0 0.0 0.0 0.0 0.0 0.0 0.0 0.0 0.0 0.0 0.0 0.0 35.9 4.7 0.0 0.0 0.2 2.7 2.1 10.0 4.5 14.6 10.4 16.3 19.2 18.8 15.3 16.5 10.6 8.1 3.0 2.9 5.2 18.3 19.0 17.8 23.9 10.3 0.0 1.0 4.8 3.0 5.5 7.3
0.0 0.0 0.0 0.0 0.0 0.0 0.0 0.0 0.0 0.0 0.0 0.0 0.7 0.0 0.0 8.7 9.4 0.0 0.0 0.0 0.0 0.0 1.8 3.8 6.4 8.7 11.8 16.1 13.8 10.5 10.4 7.2 9.0 11.3 1.7 6.8 6.2 12.8 12.9 10.0 2.4 0.8 1.3 1.8 1.3 4.4 6.7

GFSGBSN_prec_snow_252.txt.gz
Snowfall_Accumulation
0.0 0.0 0.0 0.0 0.0 0.0 0.0 0.0 0.0 0.0 0.0 0.0 0.0 0.0 0.0 0.0 0.0 0.0 0.0 0.0 0.0 0.0 0.0 0.0 0.0 0.0 0.0 0.0 0.0 0.0 0.0 0.0 0.0 0.0 0.0 0.0 0.0 0.0 0.0 0.0 0.0 0.0 0.0 0.0 0.0 0.0 0.0
0.0 0.0 0.0 0.0 0.0 0.0 0.0 0.0 0.0 0.0 0.0 0.0 0.0 0.0 0.0 0.0 0.0 0.0 0.0 0.0 0.0 0.0 0.0 0.0 0.0 0.0 0.0 0.0 0.0 0.0 0.0 0.0 0.0 0.0 0.0 0.0 0.0 0.0 0.0 0.0 0.0 0.0 0.0 0.0 0.0 0.0 0.0
0.0 0.0 0.0 0.0 0.0 0.0 0.0 0.0 0.0 0.0 0.0 0.0 0.0 0.0 0.0 0.0 0.0 0.0 0.0 0.0 0.0 0.0 0.0 0.0 0.0 0.0 0.0 0.0 0.0 0.0 0.0 0.0 0.0 0.0 0.0 0.0 0.0 0.0 0.0 0.0 0.0 0.0 0.0 0.0 0.0 0.0 0.0
0.0 0.0 0.0 0.0 0.0 0.0 0.0 0.0 0.0 0.0 0.0 0.0 0.0 0.0 0.0 0.0 0.0 0.0 0.0 0.0 0.0 0.0 0.0 0.0 0.0 0.0 0.0 0.0 0.0 0.0 0.0 0.0 0.0 0.0 0.0 0.0 0.0 0.0 0.0 0.0 0.0 0.0 0.0 0.0 0.0 0.0 0.0
0.0 0.0 0.0 0.0 0.0 0.0 0.0 0.0 0.0 0.0 0.0 0.0 0.0 0.0 0.0 0.0 0.0 0.0 0.0 0.0 0.0 0.0 0.0 0.0 0.0 0.0 0.0 0.0 0.0 0.0 0.0 0.0 0.0 0.0 0.0 0.0 0.0 0.0 0.0 0.0 0.0 0.0 0.0 0.0 0.0 0.0 0.0
0.0 0.0 0.0 0.0 0.0 0.0 0.0 0.0 0.0 0.0 0.0 0.0 0.0 0.0 0.0 0.0 0.0 0.0 0.0 0.0 0.0 0.0 0.0 0.0 0.0 0.0 0.0 0.0 0.0 0.0 0.0 0.0 0.0 0.0 0.0 0.0 0.0 0.0 0.0 0.0 0.0 0.0 0.0 0.0 0.0 0.0 0.0
0.0 0.0 0.0 0.0 0.0 0.0 0.0 0.0 0.0 0.0 0.0 0.0 0.0 0.0 0.0 0.0 0.0 0.0 0.0 0.0 0.0 0.0 0.0 0.0 0.0 0.0 0.0 0.0 0.0 0.0 0.0 0.0 0.0 0.0 0.0 0.0 0.0 0.0 0.0 0.0 0.0 0.0 0.0 0.0 0.0 0.0 0.0
0.0 0.0 0.0 0.0 0.0 0.0 0.0 0.0 0.0 0.0 0.0 0.0 0.0 0.0 0.0 0.0 0.0 0.0 0.0 0.0 0.0 0.0 0.6 0.0 0.0 0.0 0.0 0.0 0.0 0.0 0.0 0.0 0.0 0.0 0.0 0.0 0.0 0.0 0.0 0.0 0.0 0.0 0.0 0.0 0.0 0.0 0.0
0.0 0.0 0.0 0.0 0.0 0.0 0.0 0.0 0.0 0.0 0.0 0.0 0.0 0.0 0.0 0.0 0.0 0.0 0.0 0.0 0.0 0.0 2.7 0.0 0.0 0.0 0.0 0.0 0.0 0.0 0.0 0.0 0.0 0.2 0.0 0.0 0.0 0.0 0.0 0.0 0.0 0.0 0.5 0.0 0.2 0.0 0.0
0.0 0.0 0.0 0.0 0.0 0.0 0.0 0.0 0.0 0.0 0.0 0.0 0.0 0.0 0.0 0.0 0.0 0.0 0.0 0.0 0.0 0.0 6.9 0.0 0.2 0.0 0.0 0.0 0.0 0.0 0.0 0.0 0.0 0.0 0.3 0.1 0.0 0.0 0.0 0.0 0.4 0.3 0.0 0.0 0.0 0.1 0.6
0.0 0.0 0.0 0.0 0.0 0.0 0.0 0.0 0.0 0.0 0.0 0.0 0.0 0.0 0.0 0.0 0.0 0.0 0.0 0.0 0.0 0.0 34.5 0.3 0.0 0.0 0.0 0.0 0.0 0.0 0.0 0.0 0.0 0.0 0.4 0.4 0.1 0.2 0.6 0.2 0.5 0.1 0.0 0.0 0.0 0.0 0.2
0.0 0.0 0.0 0.0 0.0 0.0 0.0 0.0 0.0 0.0 0.0 0.0 0.0 0.0 0.0 0.0 0.0 0.0 0.0 0.0 0.0 37.3 45.6 1.3 0.0 0.0 0.0 0.0 0.0 0.0 0.0 0.0 0.0 0.0 0.0 0.0 0.0 0.0 0.5 0.0 0.0 0.0 0.2 0.0 0.1 0.7 2.5
0.0 0.0 0.0 0.0 0.0 0.0 0.0 0.0 0.0 0.0 0.0 0.0 0.0 0.0 0.0 0.0 0.0 0.0 0.0 0.0 58.6 61.5 0.0 2.1 0.0 0.0 0.0 0.0 0.0 0.2 0.9 0.3 0.2 2.3 1.6 0.0 0.4 0.0 0.0 0.4 0.0 0.5 0.6 6.5 5.5 5.2 3.3
0.0 0.0 0.0 0.0 0.0 0.0 0.0 0.0 0.0 0.0 0.0 0.0 0.0 0.0 0.0 0.0 0.0 0.0 0.0 13.3 70.5 12.0 3.6 0.1 0.0 0.0 0.7 0.0 0.0 0.0 0.5 0.8 0.0 0.0 0.6 2.3 2.4 0.7 0.1 2.8 0.4 0.1 0.1 2.9 5.2 1.9 0.1
0.0 0.0 0.0 0.0 0.0 0.0 0.0 0.0 0.0 0.0 0.0 0.0 0.0 0.0 0.0 0.0 0.0 0.0 6.3 85.1 51.0 1.3 0.0 0.0 0.0 1.8 2.3 0.7 0.2 0.0 1.6 2.0 1.5 0.1 4.3 5.3 2.2 0.0 0.5 0.0 0.1 1.2 4.0 0.4 5.0 1.8 2.1
0.0 0.0 0.0 0.0 0.0 0.0 0.0 0.0 0.0 0.0 0.0 0.0 0.0 0.0 0.0 0.0 0.0 0.0 36.7 64.0 23.7 0.0 0.9 0.0 2.3 1.2 2.5 2.0 1.8 2.3 1.6 4.1 2.5 2.4 0.0 3.3 8.5 0.7 0.1 0.0 0.0 1.2 1.1 8.0 11.3 25.3 12.9
0.0 0.0 0.0 0.0 0.0 0.0 0.0 0.0 0.0 0.0 0.0 0.0 0.0 8.8 0.0 0.0 0.0 2.5 62.9 18.8 8.3 0.0 0.0 2.2 2.4 4.3 1.0 2.0 5.1 4.6 4.6 2.7 4.7 1.9 0.6 1.9 8.4 1.6 0.1 2.0 3.1 0.6 3.9 7.3 9.1 14.7 16.1
0.0 0.0 0.0 0.0 0.0 0.0 0.0 0.0 0.0 0.0 0.0 0.0 0.0 40.8 0.0 0.0 32.5 39.1 39.6 15.3 1.8 0.1 0.0 2.7 1.7 1.6 3.5 2.9 3.2 5.3 7.1 5.0 0.9 1.5 3.1 3.5 7.7 10.2 1.2 0.4 0.1 0.5 7.7 11.8 45.5 39.5 28.1
0.0 0.0 0.0 0.0 0.0 0.0 0.0 0.0 0.0 0.0 0.0 0.0 16.3 22.9 0.0 0.0 55.1 39.6 12.3 15.7 5.7 4.2 3.1 5.8 3.5 0.9 1.6 2.1 7.1 4.5 4.1 0.0 2.4 5.6 6.9 7.0 10.9 13.7 6.3 1.6 0.1 6.8 9.6 9.7 14.3 31.1 29.6
0.0 0.0 0.0 0.0 0.0 0.0 0.0 0.0 0.0 0.0 0.0 0.0 22.3 53.6 13.5 0.0 7.9 11.3 13.6 15.3 10.0 0.0 2.8 0.5 7.2 0.0 5.4 7.8 2.8 5.9 4.1 2.8 6.5 5.9 2.4 4.2 7.1 8.7 9.7 6.9 6.5 7.3 3.8 7.1 17.8 28.3 19.0
0.0 0.0 0.0 0.0 0.0 0.0 0.0 0.0 0.0 0.0 0.0 0.0 38.5 42.7 0.0 36.4 22.0 10.5 11.0 10.1 7.8 7.9 4.6 0.5 6.5 3.5 4.3 10.6 7.1 4.5 4.6 6.2 9.1 0.4 3.7 12.7 12.4 5.6 4.7 1.9 1.4 3.1 3.6 2.7 11.2 6.8 12.6
0.0 0.0 0.0 0.0 0.0 0.0 0.0 0.0 0.0 0.0 0.0 0.0 75.0 21.1 4.1 7.0 4.0 13.8 9.8 13.6 5.6 5.5 11.0 7.8 8.1 3.5 2.9 6.6 3.5 7.4 4.9 2.8 8.4 0.3 9.1 11.8 14.6 9.4 12.9 3.4 4.8 7.7 5.0 3.2 5.2 4.6 4.3
0.0 0.0 0.0 0.0 0.0 0.0 0.0 0.0 0.0 0.0 0.0 13.9 6.7 0.0 13.7 5.8 4.5 10.8 12.6 9.5 7.6 10.3 3.3 2.1 4.6 6.5 5.5 4.2 0.9 0.6 0.2 0.1 1.0 6.2 7.4 13.5 19.7 18.9 19.1 4.7 6.8 14.2 6.7 4.3 3.6 1.6 1.5
0.0 0.0 0.0 0.0 0.0 0.0 0.0 0.0 0.0 0.0 0.0 0.0 0.0 0.0 19.7 23.0 9.1 6.2 4.3 2.5 5.9 6.9 15.4 3.7 2.5 5.9 0.0 0.1 0.0 0.0 0.0 2.2 0.0 2.6 2.5 13.7 16.0 23.1 23.6 9.5 22.0 6.0 3.2 1.7 0.7 0.6 0.3
0.0 0.0 0.0 0.0 0.0 0.0 0.0 0.0 0.0 0.0 0.0 0.0 0.0 0.0 15.1 22.9 4.5 6.2 4.6 4.7 3.1 3.8 7.4 8.5 4.0 0.3 0.0 1.1 11.7 20.6 18.7 17.9 12.9 6.8 6.6 5.0 9.3 23.3 22.3 15.9 9.6 1.8 0.3 0.6 6.6 4.5 0.4
0.0 0.0 0.0 0.0 0.0 0.0 0.0 0.0 0.0 0.0 0.0 0.0 0.0 0.0 2.0 27.9 9.8 0.7 4.7 1.5 4.2 8.1 8.2 6.1 2.9 0.0 0.0 8.8 22.2 26.6 17.1 10.6 7.9 5.5 3.6 4.6 7.2 19.0 23.7 19.1 10.9 0.2 0.1 0.0 0.2 12.8 0.5
0.0 0.0 0.0 0.0 0.0 0.0 0.0 0.0 0.0 0.0 0.0 0.0 0.0 0.0 0.4 35.6 2.0 0.8 5.7 6.7 0.9 2.7 9.3 2.6 2.4 5.3 0.4 20.6 31.3 23.6 13.4 3.9 5.9 2.8 8.2 12.5 19.6 27.9 19.4 17.6 3.4 0.6 0.2 0.0 12.4 11.8 4.7
0.0 0.0 0.0 0.0 0.0 0.0 0.0 0.0 0.0 0.0 0.0 0.0 0.0 0.0 0.0 35.9 4.7 0.0 0.0 0.2 2.7 2.1 10.0 4.5 14.6 10.4 16.3 19.2 18.8 15.3 16.5 10.6 8.1 3.0 2.9 5.2 18.3 19.0 17.8 23.9 10.3 0.0 1.0 4.8 3.0 5.5 7.3
0.0 0.0 0.0 0.0 0.0 0.0 0.0 0.0 0.0 0.0 0.0 0.0 0.7 0.0 0.0 8.7 9.4 0.0 0.0 0.0 0.0 0.0 1.8 3.8 6.4 8.7 11.8 16.1 13.8 10.5 10.4 7.2 9.0 11.3 1.7 6.8 6.2 12.8 12.9 10.0 2.4 0.8 1.3 1.8 1.3 4.4 6.7

GFSGBSN_prec_snow_258.txt.gz
Snowfall_Accumulation
0.0 0.0 0.0 0.0 0.0 0.0 0.0 0.0 0.0 0.0 0.0 0.0 0.0 0.0 0.0 0.0 0.0 0.0 0.0 0.0 0.0 0.0 0.0 0.0 0.0 0.0 0.0 0.0 0.0 0.0 0.0 0.0 0.0 0.0 0.0 0.0 0.0 0.0 0.0 0.0 0.0 0.0 0.0 0.0 0.0 0.0 0.0
0.0 0.0 0.0 0.0 0.0 0.0 0.0 0.0 0.0 0.0 0.0 0.0 0.0 0.0 0.0 0.0 0.0 0.0 0.0 0.0 0.0 0.0 0.0 0.0 0.0 0.0 0.0 0.0 0.0 0.0 0.0 0.0 0.0 0.0 0.0 0.0 0.0 0.0 0.0 0.0 0.0 0.0 0.0 0.0 0.0 0.0 0.0
0.0 0.0 0.0 0.0 0.0 0.0 0.0 0.0 0.0 0.0 0.0 0.0 0.0 0.0 0.0 0.0 0.0 0.0 0.0 0.0 0.0 0.0 0.0 0.0 0.0 0.0 0.0 0.0 0.0 0.0 0.0 0.0 0.0 0.0 0.0 0.0 0.0 0.0 0.0 0.0 0.0 0.0 0.0 0.0 0.0 0.0 0.0
0.0 0.0 0.0 0.0 0.0 0.0 0.0 0.0 0.0 0.0 0.0 0.0 0.0 0.0 0.0 0.0 0.0 0.0 0.0 0.0 0.0 0.0 0.0 0.0 0.0 0.0 0.0 0.0 0.0 0.0 0.0 0.0 0.0 0.0 0.0 0.0 0.0 0.0 0.0 0.0 0.0 0.0 0.0 0.0 0.0 0.0 0.0
0.0 0.0 0.0 0.0 0.0 0.0 0.0 0.0 0.0 0.0 0.0 0.0 0.0 0.0 0.0 0.0 0.0 0.0 0.0 0.0 0.0 0.0 0.0 0.0 0.0 0.0 0.0 0.0 0.0 0.0 0.0 0.0 0.0 0.0 0.0 0.0 0.0 0.0 0.0 0.0 0.0 0.0 0.0 0.0 0.0 0.0 0.0
0.0 0.0 0.0 0.0 0.0 0.0 0.0 0.0 0.0 0.0 0.0 0.0 0.0 0.0 0.0 0.0 0.0 0.0 0.0 0.0 0.0 0.0 0.0 0.0 0.0 0.0 0.0 0.0 0.0 0.0 0.0 0.0 0.0 0.0 0.0 0.0 0.0 0.0 0.0 0.0 0.0 0.0 0.0 0.0 0.0 0.0 0.0
0.0 0.0 0.0 0.0 0.0 0.0 0.0 0.0 0.0 0.0 0.0 0.0 0.0 0.0 0.0 0.0 0.0 0.0 0.0 0.0 0.0 0.0 0.0 0.0 0.0 0.0 0.0 0.0 0.0 0.0 0.0 0.0 0.0 0.0 0.0 0.0 0.0 0.0 0.0 0.0 0.0 0.0 0.0 0.0 0.0 0.0 0.0
0.0 0.0 0.0 0.0 0.0 0.0 0.0 0.0 0.0 0.0 0.0 0.0 0.0 0.0 0.0 0.0 0.0 0.0 0.0 0.0 0.0 0.0 0.6 0.0 0.0 0.0 0.0 0.0 0.0 0.0 0.0 0.0 0.0 0.0 0.0 0.0 0.0 0.0 0.0 0.0 0.0 0.0 0.0 0.0 0.0 0.0 0.0
0.0 0.0 0.0 0.0 0.0 0.0 0.0 0.0 0.0 0.0 0.0 0.0 0.0 0.0 0.0 0.0 0.0 0.0 0.0 0.0 0.0 0.0 2.7 0.0 0.0 0.0 0.0 0.0 0.0 0.0 0.0 0.0 0.0 0.2 0.0 0.0 0.0 0.0 0.0 0.0 0.0 0.0 0.5 0.0 0.2 0.0 0.0
0.0 0.0 0.0 0.0 0.0 0.0 0.0 0.0 0.0 0.0 0.0 0.0 0.0 0.0 0.0 0.0 0.0 0.0 0.0 0.0 0.0 0.0 6.9 0.0 0.2 0.0 0.0 0.0 0.0 0.0 0.0 0.0 0.0 0.0 0.3 0.1 0.0 0.0 0.0 0.0 0.4 0.3 0.0 0.0 0.0 0.2 0.6
0.0 0.0 0.0 0.0 0.0 0.0 0.0 0.0 0.0 0.0 0.0 0.0 0.0 0.0 0.0 0.0 0.0 0.0 0.0 0.0 0.0 0.0 34.5 0.3 0.0 0.0 0.0 0.0 0.0 0.0 0.0 0.0 0.0 0.0 0.4 0.4 0.1 0.2 0.6 0.2 0.5 0.1 0.0 0.0 0.0 0.0 0.6
0.0 0.0 0.0 0.0 0.0 0.0 0.0 0.0 0.0 0.0 0.0 0.0 0.0 0.0 0.0 0.0 0.0 0.0 0.0 0.0 0.0 37.3 45.6 1.3 0.0 0.0 0.0 0.0 0.0 0.0 0.0 0.0 0.0 0.0 0.0 0.0 0.0 0.0 0.5 0.0 0.0 0.0 0.2 0.0 0.1 0.9 3.3
0.0 0.0 0.0 0.0 0.0 0.0 0.0 0.0 0.0 0.0 0.0 0.0 0.0 0.0 0.0 0.0 0.0 0.0 0.0 0.0 58.6 61.5 0.0 2.1 0.0 0.0 0.0 0.0 0.0 0.2 0.9 0.3 0.2 2.3 1.6 0.0 0.4 0.0 0.0 0.4 0.0 0.5 0.6 6.6 5.6 5.4 3.4
0.0 0.0 0.0 0.0 0.0 0.0 0.0 0.0 0.0 0.0 0.0 0.0 0.0 0.0 0.0 0.0 0.0 0.0 0.0 13.3 70.5 12.0 3.6 0.1 0.0 0.0 0.7 0.0 0.0 0.0 0.5 0.8 0.0 0.0 0.6 2.3 2.4 0.7 0.1 2.8 0.4 0.1 0.7 3.4 5.5 2.3 0.2
0.0 0.0 0.0 0.0 0.0 0.0 0.0 0.0 0.0 0.0 0.0 0.0 0.0 0.0 0.0 0.0 0.0 0.0 6.3 85.1 51.0 1.3 0.0 0.0 0.0 1.8 2.3 0.7 0.2 0.0 1.6 2.0 1.5 0.1 4.3 5.3 2.2 0.0 0.5 0.0 0.1 1.2 4.0 0.8 5.6 1.8 2.6
0.0 0.0 0.0 0.0 0.0 0.0 0.0 0.0 0.0 0.0 0.0 0.0 0.0 0.0 0.0 0.0 0.0 0.0 36.7 64.0 23.7 0.0 0.9 0.0 2.3 1.2 2.5 2.0 1.8 2.3 1.6 4.1 2.5 2.4 0.0 3.3 8.5 0.7 0.1 0.0 0.0 1.2 1.1 8.1 12.6 25.6 14.6
0.0 0.0 0.0 0.0 0.0 0.0 0.0 0.0 0.0 0.0 0.0 0.0 0.0 8.8 0.0 0.0 0.0 2.5 62.9 18.8 8.3 0.0 0.0 2.2 2.4 4.3 1.0 2.0 5.1 4.6 4.6 2.7 4.7 1.9 0.6 1.9 8.4 1.6 0.1 2.0 3.1 0.6 3.9 7.3 9.5 15.0 16.5
0.0 0.0 0.0 0.0 0.0 0.0 0.0 0.0 0.0 0.0 0.0 0.0 0.0 40.8 0.0 0.0 32.5 39.1 39.6 15.3 1.8 0.1 0.0 2.7 1.7 1.6 3.5 2.9 3.2 5.3 7.1 5.0 0.9 1.5 3.1 3.5 7.7 10.2 1.2 0.4 0.1 0.5 7.7 11.8 45.6 39.5 28.2
0.0 0.0 0.0 0.0 0.0 0.0 0.0 0.0 0.0 0.0 0.0 0.0 16.3 22.9 0.0 0.0 55.1 39.6 12.3 15.7 5.7 4.2 3.1 5.8 3.5 0.9 1.6 2.1 7.1 4.5 4.1 0.0 2.4 5.6 6.9 7.0 10.9 13.7 6.3 1.6 0.1 6.8 9.6 9.7 14.3 31.1 29.6
0.0 0.0 0.0 0.0 0.0 0.0 0.0 0.0 0.0 0.0 0.0 0.0 22.3 53.6 13.5 0.0 7.9 11.3 13.6 15.3 10.0 0.0 2.8 0.5 7.2 0.0 5.4 7.8 2.8 5.9 4.1 2.8 6.5 5.9 2.4 4.2 7.1 8.7 9.7 6.9 6.5 7.3 3.8 7.1 17.8 28.3 19.0
0.0 0.0 0.0 0.0 0.0 0.0 0.0 0.0 0.0 0.0 0.0 0.0 38.5 42.7 0.0 36.4 22.0 10.5 11.0 10.1 7.8 7.9 4.6 0.5 6.5 3.5 4.3 10.6 7.1 4.5 4.6 6.2 9.1 0.4 3.7 12.7 12.4 5.6 4.7 1.9 1.4 3.1 3.6 2.7 11.2 6.8 12.6
0.0 0.0 0.0 0.0 0.0 0.0 0.0 0.0 0.0 0.0 0.0 0.0 75.0 21.2 4.1 7.0 4.0 13.8 9.8 13.6 5.6 5.5 11.0 7.8 8.1 3.5 2.9 6.6 3.5 7.4 4.9 2.8 8.4 0.3 9.1 11.8 14.6 9.4 12.9 3.4 4.8 7.7 5.0 3.2 5.2 4.6 4.3
0.0 0.0 0.0 0.0 0.0 0.0 0.0 0.0 0.0 0.0 0.0 13.9 6.7 0.0 13.7 5.8 4.5 10.8 12.6 9.5 7.6 10.3 3.3 2.1 4.6 6.5 5.5 4.2 0.9 0.6 0.2 0.1 1.0 6.2 7.4 13.5 19.7 18.9 19.1 4.7 6.8 14.2 6.7 4.3 3.6 1.6 1.5
0.0 0.0 0.0 0.0 0.0 0.0 0.0 0.0 0.0 0.0 0.0 0.0 0.0 0.0 19.7 23.0 9.1 6.2 4.3 2.5 5.9 6.9 15.4 3.7 2.5 5.9 0.0 0.1 0.0 0.0 0.0 2.2 0.0 2.6 2.5 13.7 16.0 23.1 23.6 9.5 22.0 6.0 3.2 1.7 0.7 0.6 0.3
0.0 0.0 0.0 0.0 0.0 0.0 0.0 0.0 0.0 0.0 0.0 0.0 0.0 0.0 15.1 22.9 4.5 6.2 4.6 4.7 3.1 3.8 7.4 8.5 4.0 0.3 0.0 1.1 11.7 20.6 18.7 17.9 12.9 6.8 6.6 5.0 9.3 23.3 22.3 15.9 9.6 1.8 0.3 0.6 6.6 4.5 0.4
0.0 0.0 0.0 0.0 0.0 0.0 0.0 0.0 0.0 0.0 0.0 0.0 0.0 0.0 2.0 27.9 9.8 0.7 4.7 1.5 4.2 8.1 8.2 6.1 2.9 0.0 0.0 8.8 22.2 26.6 17.1 10.6 7.9 5.5 3.6 4.6 7.2 19.0 23.7 19.1 10.9 0.2 0.1 0.0 0.2 12.8 0.5
0.0 0.0 0.0 0.0 0.0 0.0 0.0 0.0 0.0 0.0 0.0 0.0 0.0 0.0 0.4 35.6 2.0 0.8 5.7 6.7 0.9 2.7 9.3 2.6 2.4 5.3 0.4 20.6 31.3 23.6 13.4 3.9 5.9 2.8 8.2 12.5 19.6 27.9 19.4 17.6 3.4 0.6 0.2 0.0 12.4 11.8 4.7
0.0 0.0 0.0 0.0 0.0 0.0 0.0 0.0 0.0 0.0 0.0 0.0 0.0 0.0 0.0 35.9 4.7 0.0 0.0 0.2 2.7 2.1 10.0 4.5 14.6 10.4 16.3 19.2 18.8 15.3 16.5 10.6 8.1 3.0 2.9 5.2 18.3 19.0 17.8 23.9 10.3 0.0 1.0 4.8 3.0 5.5 7.3
0.0 0.0 0.0 0.0 0.0 0.0 0.0 0.0 0.0 0.0 0.0 0.0 0.7 0.0 0.0 8.7 9.4 0.0 0.0 0.0 0.0 0.0 1.8 3.8 6.4 8.7 11.8 16.1 13.8 10.5 10.4 7.2 9.0 11.3 1.7 6.8 6.2 12.8 12.9 10.0 2.4 0.8 1.3 1.8 1.3 4.4 6.7

GFSGBSN_prec_snow_261.txt.gz
Snowfall_Accumulation
0.0 0.0 0.0 0.0 0.0 0.0 0.0 0.0 0.0 0.0 0.0 0.0 0.0 0.0 0.0 0.0 0.0 0.0 0.0 0.0 0.0 0.0 0.0 0.0 0.0 0.0 0.0 0.0 0.0 0.0 0.0 0.0 0.0 0.0 0.0 0.0 0.0 0.0 0.0 0.0 0.0 0.0 0.0 0.0 0.0 0.0 0.0
0.0 0.0 0.0 0.0 0.0 0.0 0.0 0.0 0.0 0.0 0.0 0.0 0.0 0.0 0.0 0.0 0.0 0.0 0.0 0.0 0.0 0.0 0.0 0.0 0.0 0.0 0.0 0.0 0.0 0.0 0.0 0.0 0.0 0.0 0.0 0.0 0.0 0.0 0.0 0.0 0.0 0.0 0.0 0.0 0.0 0.0 0.0
0.0 0.0 0.0 0.0 0.0 0.0 0.0 0.0 0.0 0.0 0.0 0.0 0.0 0.0 0.0 0.0 0.0 0.0 0.0 0.0 0.0 0.0 0.0 0.0 0.0 0.0 0.0 0.0 0.0 0.0 0.0 0.0 0.0 0.0 0.0 0.0 0.0 0.0 0.0 0.0 0.0 0.0 0.0 0.0 0.0 0.0 0.0
0.0 0.0 0.0 0.0 0.0 0.0 0.0 0.0 0.0 0.0 0.0 0.0 0.0 0.0 0.0 0.0 0.0 0.0 0.0 0.0 0.0 0.0 0.0 0.0 0.0 0.0 0.0 0.0 0.0 0.0 0.0 0.0 0.0 0.0 0.0 0.0 0.0 0.0 0.0 0.0 0.0 0.0 0.0 0.0 0.0 0.0 0.0
0.0 0.0 0.0 0.0 0.0 0.0 0.0 0.0 0.0 0.0 0.0 0.0 0.0 0.0 0.0 0.0 0.0 0.0 0.0 0.0 0.0 0.0 0.0 0.0 0.0 0.0 0.0 0.0 0.0 0.0 0.0 0.0 0.0 0.0 0.0 0.0 0.0 0.0 0.0 0.0 0.0 0.0 0.0 0.0 0.0 0.0 0.0
0.0 0.0 0.0 0.0 0.0 0.0 0.0 0.0 0.0 0.0 0.0 0.0 0.0 0.0 0.0 0.0 0.0 0.0 0.0 0.0 0.0 0.0 0.0 0.0 0.0 0.0 0.0 0.0 0.0 0.0 0.0 0.0 0.0 0.0 0.0 0.0 0.0 0.0 0.0 0.0 0.0 0.0 0.0 0.0 0.0 0.0 0.0
0.0 0.0 0.0 0.0 0.0 0.0 0.0 0.0 0.0 0.0 0.0 0.0 0.0 0.0 0.0 0.0 0.0 0.0 0.0 0.0 0.0 0.0 0.0 0.0 0.0 0.0 0.0 0.0 0.0 0.0 0.0 0.0 0.0 0.0 0.0 0.0 0.0 0.0 0.0 0.0 0.0 0.0 0.0 0.0 0.0 0.0 0.0
0.0 0.0 0.0 0.0 0.0 0.0 0.0 0.0 0.0 0.0 0.0 0.0 0.0 0.0 0.0 0.0 0.0 0.0 0.0 0.0 0.0 0.0 0.6 0.0 0.0 0.0 0.0 0.0 0.0 0.0 0.0 0.0 0.0 0.0 0.0 0.0 0.0 0.0 0.0 0.0 0.0 0.0 0.0 0.0 0.0 0.0 0.0
0.0 0.0 0.0 0.0 0.0 0.0 0.0 0.0 0.0 0.0 0.0 0.0 0.0 0.0 0.0 0.0 0.0 0.0 0.0 0.0 0.0 0.0 2.7 0.0 0.0 0.0 0.0 0.0 0.0 0.0 0.0 0.0 0.0 0.2 0.0 0.0 0.0 0.0 0.0 0.0 0.0 0.0 0.5 0.0 0.2 0.0 0.0
0.0 0.0 0.0 0.0 0.0 0.0 0.0 0.0 0.0 0.0 0.0 0.0 0.0 0.0 0.0 0.0 0.0 0.0 0.0 0.0 0.0 0.0 6.9 0.0 0.2 0.0 0.0 0.0 0.0 0.0 0.0 0.0 0.0 0.0 0.3 0.1 0.0 0.0 0.0 0.0 0.4 0.3 0.0 0.0 0.0 0.2 0.6
0.0 0.0 0.0 0.0 0.0 0.0 0.0 0.0 0.0 0.0 0.0 0.0 0.0 0.0 0.0 0.0 0.0 0.0 0.0 0.0 0.0 0.0 34.5 0.3 0.0 0.0 0.0 0.0 0.0 0.0 0.0 0.0 0.0 0.0 0.4 0.4 0.1 0.2 0.6 0.2 0.5 0.1 0.0 0.0 0.0 0.0 0.6
0.0 0.0 0.0 0.0 0.0 0.0 0.0 0.0 0.0 0.0 0.0 0.0 0.0 0.0 0.0 0.0 0.0 0.0 0.0 0.0 0.0 37.3 45.6 1.3 0.0 0.0 0.0 0.0 0.0 0.0 0.0 0.0 0.0 0.0 0.0 0.0 0.0 0.0 0.5 0.0 0.0 0.0 0.2 0.0 0.1 0.9 3.3
0.0 0.0 0.0 0.0 0.0 0.0 0.0 0.0 0.0 0.0 0.0 0.0 0.0 0.0 0.0 0.0 0.0 0.0 0.0 0.0 58.6 61.5 0.0 2.1 0.0 0.0 0.0 0.0 0.0 0.2 0.9 0.3 0.2 2.3 1.6 0.0 0.4 0.0 0.0 0.4 0.0 0.5 0.6 6.6 5.7 5.8 3.8
0.0 0.0 0.0 0.0 0.0 0.0 0.0 0.0 0.0 0.0 0.0 0.0 0.0 0.0 0.0 0.0 0.0 0.0 0.0 13.3 70.5 12.0 3.6 0.1 0.0 0.0 0.7 0.0 0.0 0.0 0.5 0.8 0.0 0.0 0.6 2.3 2.4 0.7 0.1 2.8 0.4 0.1 0.7 3.4 5.6 2.4 0.5
0.0 0.0 0.0 0.0 0.0 0.0 0.0 0.0 0.0 0.0 0.0 0.0 0.0 0.0 0.0 0.0 0.0 0.0 6.3 85.1 51.0 1.3 0.0 0.0 0.0 1.8 2.3 0.7 0.2 0.0 1.6 2.0 1.5 0.1 4.3 5.3 2.2 0.0 0.5 0.0 0.1 1.2 4.0 0.8 5.6 1.8 3.7
0.0 0.0 0.0 0.0 0.0 0.0 0.0 0.0 0.0 0.0 0.0 0.0 0.0 0.0 0.0 0.0 0.0 0.0 36.7 64.0 23.7 0.0 0.9 0.0 2.3 1.2 2.5 2.0 1.8 2.3 1.6 4.1 2.5 2.4 0.0 3.3 8.5 0.7 0.1 0.0 0.0 1.2 1.1 8.1 12.7 25.8 15.2
0.0 0.0 0.0 0.0 0.0 0.0 0.0 0.0 0.0 0.0 0.0 0.0 0.0 8.8 0.0 0.0 0.0 2.5 62.9 18.8 8.3 0.0 0.0 2.2 2.4 4.3 1.0 2.0 5.1 4.6 4.6 2.7 4.7 1.9 0.6 1.9 8.4 1.6 0.1 2.0 3.1 0.6 3.9 7.3 9.5 15.0 16.8
0.0 0.0 0.0 0.0 0.0 0.0 0.0 0.0 0.0 0.0 0.0 0.0 0.0 40.8 0.0 0.0 32.5 39.1 39.6 15.3 1.8 0.1 0.0 2.7 1.7 1.6 3.5 2.9 3.2 5.3 7.1 5.0 0.9 1.5 3.1 3.5 7.7 10.2 1.2 0.4 0.1 0.5 7.7 11.8 45.7 39.5 28.3
0.0 0.0 0.0 0.0 0.0 0.0 0.0 0.0 0.0 0.0 0.0 0.0 16.3 22.9 0.0 0.0 55.1 39.7 12.3 15.7 5.7 4.2 3.1 5.8 3.5 0.9 1.6 2.1 7.1 4.5 4.1 0.0 2.4 5.6 6.9 7.0 10.9 13.7 6.3 1.6 0.1 6.8 9.6 9.7 14.3 31.1 29.6
0.0 0.0 0.0 0.0 0.0 0.0 0.0 0.0 0.0 0.0 0.0 0.0 22.3 53.6 13.5 0.0 7.9 11.3 13.6 15.3 10.0 0.0 2.8 0.5 7.2 0.0 5.4 7.8 2.8 5.9 4.1 2.8 6.5 5.9 2.4 4.2 7.1 8.7 9.7 6.9 6.5 7.3 3.8 7.1 17.8 28.4 19.1
0.0 0.0 0.0 0.0 0.0 0.0 0.0 0.0 0.0 0.0 0.0 0.0 38.5 42.8 0.0 36.4 22.0 10.5 11.0 10.1 7.8 7.9 4.6 0.5 6.5 3.5 4.3 10.6 7.1 4.5 4.6 6.2 9.1 0.4 3.7 12.7 12.4 5.6 4.7 1.9 1.4 3.1 3.6 2.7 11.2 6.8 12.6
0.0 0.0 0.0 0.0 0.0 0.0 0.0 0.0 0.0 0.0 0.0 0.0 75.0 21.2 4.1 7.0 4.0 13.8 9.8 13.6 5.6 5.5 11.0 7.8 8.1 3.5 2.9 6.6 3.5 7.4 4.9 2.8 8.4 0.3 9.1 11.8 14.6 9.4 12.9 3.4 4.8 7.7 5.0 3.2 5.2 4.6 4.3
0.0 0.0 0.0 0.0 0.0 0.0 0.0 0.0 0.0 0.0 0.0 13.9 6.7 0.0 13.7 5.8 4.5 10.8 12.6 9.5 7.6 10.3 3.3 2.1 4.6 6.5 5.5 4.2 0.9 0.6 0.2 0.1 1.0 6.2 7.4 13.5 19.7 18.9 19.1 4.7 6.8 14.2 6.7 4.3 3.6 1.6 1.5
0.0 0.0 0.0 0.0 0.0 0.0 0.0 0.0 0.0 0.0 0.0 0.0 0.0 0.0 19.7 23.1 9.1 6.2 4.3 2.5 5.9 6.9 15.4 3.7 2.5 5.9 0.0 0.1 0.0 0.0 0.0 2.2 0.0 2.6 2.5 13.7 16.0 23.1 23.6 9.5 22.0 6.0 3.2 1.7 0.7 0.6 0.3
0.0 0.0 0.0 0.0 0.0 0.0 0.0 0.0 0.0 0.0 0.0 0.0 0.0 0.0 15.1 23.0 4.5 6.2 4.6 4.7 3.1 3.8 7.4 8.5 4.0 0.3 0.0 1.1 11.7 20.6 18.7 17.9 12.9 6.8 6.6 5.0 9.3 23.3 22.3 15.9 9.6 1.8 0.3 0.6 6.6 4.5 0.4
0.0 0.0 0.0 0.0 0.0 0.0 0.0 0.0 0.0 0.0 0.0 0.0 0.0 0.0 2.0 27.9 9.8 0.7 4.7 1.5 4.2 8.1 8.2 6.1 2.9 0.0 0.0 8.8 22.2 26.6 17.1 10.6 7.9 5.5 3.6 4.6 7.2 19.0 23.7 19.1 10.9 0.2 0.1 0.0 0.2 12.8 0.5
0.0 0.0 0.0 0.0 0.0 0.0 0.0 0.0 0.0 0.0 0.0 0.0 0.0 0.0 0.4 35.8 2.0 0.8 5.7 6.7 0.9 2.7 9.3 2.6 2.4 5.3 0.4 20.6 31.3 23.6 13.4 3.9 5.9 2.8 8.2 12.5 19.6 27.9 19.4 17.6 3.4 0.6 0.2 0.0 12.4 11.8 4.7
0.0 0.0 0.0 0.0 0.0 0.0 0.0 0.0 0.0 0.0 0.0 0.0 0.0 0.0 0.0 35.9 4.7 0.0 0.0 0.2 2.7 2.1 10.0 4.5 14.6 10.4 16.3 19.2 18.8 15.3 16.5 10.6 8.1 3.0 2.9 5.2 18.3 19.0 17.8 23.9 10.3 0.0 1.0 4.8 3.0 5.5 7.3
0.0 0.0 0.0 0.0 0.0 0.0 0.0 0.0 0.0 0.0 0.0 0.0 4.5 0.0 0.0 8.7 9.4 0.0 0.0 0.0 0.0 0.0 1.8 3.8 6.4 8.7 11.8 16.1 13.8 10.5 10.4 7.2 9.0 11.3 1.7 6.8 6.2 12.8 12.9 10.0 2.4 0.8 1.3 1.8 1.3 4.4 6.7

GFSGBSN_prec_snow_264.txt.gz
Snowfall_Accumulation
0.0 0.0 0.0 0.0 0.0 0.0 0.0 0.0 0.0 0.0 0.0 0.0 0.0 0.0 0.0 0.0 0.0 0.0 0.0 0.0 0.0 0.0 0.0 0.0 0.0 0.0 0.0 0.0 0.0 0.0 0.0 0.0 0.0 0.0 0.0 0.0 0.0 0.0 0.0 0.0 0.0 0.0 0.0 0.0 0.0 0.0 0.0
0.0 0.0 0.0 0.0 0.0 0.0 0.0 0.0 0.0 0.0 0.0 0.0 0.0 0.0 0.0 0.0 0.0 0.0 0.0 0.0 0.0 0.0 0.0 0.0 0.0 0.0 0.0 0.0 0.0 0.0 0.0 0.0 0.0 0.0 0.0 0.0 0.0 0.0 0.0 0.0 0.0 0.0 0.0 0.0 0.0 0.0 0.0
0.0 0.0 0.0 0.0 0.0 0.0 0.0 0.0 0.0 0.0 0.0 0.0 0.0 0.0 0.0 0.0 0.0 0.0 0.0 0.0 0.0 0.0 0.0 0.0 0.0 0.0 0.0 0.0 0.0 0.0 0.0 0.0 0.0 0.0 0.0 0.0 0.0 0.0 0.0 0.0 0.0 0.0 0.0 0.0 0.0 0.0 0.0
0.0 0.0 0.0 0.0 0.0 0.0 0.0 0.0 0.0 0.0 0.0 0.0 0.0 0.0 0.0 0.0 0.0 0.0 0.0 0.0 0.0 0.0 0.0 0.0 0.0 0.0 0.0 0.0 0.0 0.0 0.0 0.0 0.0 0.0 0.0 0.0 0.0 0.0 0.0 0.0 0.0 0.0 0.0 0.0 0.0 0.0 0.0
0.0 0.0 0.0 0.0 0.0 0.0 0.0 0.0 0.0 0.0 0.0 0.0 0.0 0.0 0.0 0.0 0.0 0.0 0.0 0.0 0.0 0.0 0.0 0.0 0.0 0.0 0.0 0.0 0.0 0.0 0.0 0.0 0.0 0.0 0.0 0.0 0.0 0.0 0.0 0.0 0.0 0.0 0.0 0.0 0.0 0.0 0.0
0.0 0.0 0.0 0.0 0.0 0.0 0.0 0.0 0.0 0.0 0.0 0.0 0.0 0.0 0.0 0.0 0.0 0.0 0.0 0.0 0.0 0.0 0.0 0.0 0.0 0.0 0.0 0.0 0.0 0.0 0.0 0.0 0.0 0.0 0.0 0.0 0.0 0.0 0.0 0.0 0.0 0.0 0.0 0.0 0.0 0.0 0.0
0.0 0.0 0.0 0.0 0.0 0.0 0.0 0.0 0.0 0.0 0.0 0.0 0.0 0.0 0.0 0.0 0.0 0.0 0.0 0.0 0.0 0.0 0.0 0.0 0.0 0.0 0.0 0.0 0.0 0.0 0.0 0.0 0.0 0.0 0.0 0.0 0.0 0.0 0.0 0.0 0.0 0.0 0.0 0.0 0.0 0.0 0.0
0.0 0.0 0.0 0.0 0.0 0.0 0.0 0.0 0.0 0.0 0.0 0.0 0.0 0.0 0.0 0.0 0.0 0.0 0.0 0.0 0.0 0.0 0.6 0.0 0.0 0.0 0.0 0.0 0.0 0.0 0.0 0.0 0.0 0.0 0.0 0.0 0.0 0.0 0.0 0.0 0.0 0.0 0.0 0.0 0.0 0.0 0.0
0.0 0.0 0.0 0.0 0.0 0.0 0.0 0.0 0.0 0.0 0.0 0.0 0.0 0.0 0.0 0.0 0.0 0.0 0.0 0.0 0.0 0.0 2.7 0.0 0.0 0.0 0.0 0.0 0.0 0.0 0.0 0.0 0.0 0.2 0.0 0.0 0.0 0.0 0.0 0.0 0.0 0.0 0.5 0.0 0.2 0.0 0.0
0.0 0.0 0.0 0.0 0.0 0.0 0.0 0.0 0.0 0.0 0.0 0.0 0.0 0.0 0.0 0.0 0.0 0.0 0.0 0.0 0.0 0.0 6.9 0.0 0.2 0.0 0.0 0.0 0.0 0.0 0.0 0.0 0.0 0.0 0.3 0.1 0.0 0.0 0.0 0.0 0.4 0.3 0.0 0.0 0.0 0.2 0.6
0.0 0.0 0.0 0.0 0.0 0.0 0.0 0.0 0.0 0.0 0.0 0.0 0.0 0.0 0.0 0.0 0.0 0.0 0.0 0.0 0.0 0.0 34.5 0.3 0.0 0.0 0.0 0.0 0.0 0.0 0.0 0.0 0.0 0.0 0.4 0.4 0.1 0.2 0.6 0.2 0.5 0.1 0.0 0.0 0.0 0.0 0.6
0.0 0.0 0.0 0.0 0.0 0.0 0.0 0.0 0.0 0.0 0.0 0.0 0.0 0.0 0.0 0.0 0.0 0.0 0.0 0.0 0.0 37.3 45.6 1.3 0.0 0.0 0.0 0.0 0.0 0.0 0.0 0.0 0.0 0.0 0.0 0.0 0.0 0.0 0.5 0.0 0.0 0.0 0.2 0.0 0.1 0.9 3.3
0.0 0.0 0.0 0.0 0.0 0.0 0.0 0.0 0.0 0.0 0.0 0.0 0.0 0.0 0.0 0.0 0.0 0.0 0.0 0.0 58.6 61.5 0.0 2.1 0.0 0.0 0.0 0.0 0.0 0.2 0.9 0.3 0.2 2.3 1.6 0.0 0.4 0.0 0.0 0.4 0.0 0.5 0.6 6.6 5.7 5.9 3.8
0.0 0.0 0.0 0.0 0.0 0.0 0.0 0.0 0.0 0.0 0.0 0.0 0.0 0.0 0.0 0.0 0.0 0.0 0.0 13.3 70.5 12.0 3.6 0.1 0.0 0.0 0.7 0.0 0.0 0.0 0.5 0.8 0.0 0.0 0.6 2.3 2.4 0.7 0.1 2.8 0.4 0.1 0.7 3.4 5.6 2.4 0.5
0.0 0.0 0.0 0.0 0.0 0.0 0.0 0.0 0.0 0.0 0.0 0.0 0.0 0.0 0.0 0.0 0.0 0.0 6.3 85.1 51.0 1.3 0.0 0.0 0.0 1.8 2.3 0.7 0.2 0.0 1.6 2.0 1.5 0.1 4.3 5.3 2.2 0.0 0.5 0.0 0.1 1.2 4.0 0.8 5.6 1.8 4.2
0.0 0.0 0.0 0.0 0.0 0.0 0.0 0.0 0.0 0.0 0.0 0.0 0.0 0.0 0.0 0.0 0.0 0.0 36.7 64.0 23.7 0.0 0.9 0.0 2.3 1.2 2.5 2.0 1.8 2.3 1.6 4.1 2.5 2.4 0.0 3.3 8.5 0.7 0.1 0.0 0.0 1.2 1.1 8.1 12.8 25.8 15.2
0.0 0.0 0.0 0.0 0.0 0.0 0.0 0.0 0.0 0.0 0.0 0.0 0.0 8.8 0.0 0.0 0.0 2.5 62.9 18.8 8.3 0.0 0.0 2.2 2.4 4.3 1.0 2.0 5.1 4.6 4.6 2.7 4.7 1.9 0.6 1.9 8.4 1.6 0.1 2.0 3.1 0.6 3.9 7.3 9.5 15.0 16.8
0.0 0.0 0.0 0.0 0.0 0.0 0.0 0.0 0.0 0.0 0.0 0.0 0.0 40.8 0.0 0.0 32.5 39.1 39.6 15.3 1.8 0.1 0.0 2.7 1.7 1.6 3.5 2.9 3.2 5.3 7.1 5.0 0.9 1.5 3.1 3.5 7.7 10.2 1.2 0.4 0.1 0.5 7.7 11.8 45.7 39.5 28.3
0.0 0.0 0.0 0.0 0.0 0.0 0.0 0.0 0.0 0.0 0.0 0.0 16.3 22.9 0.0 0.0 55.1 39.7 12.3 15.7 5.7 4.2 3.1 5.8 3.5 0.9 1.6 2.1 7.1 4.5 4.1 0.0 2.4 5.6 6.9 7.0 10.9 13.7 6.3 1.6 0.1 6.8 9.6 9.7 14.3 31.1 29.6
0.0 0.0 0.0 0.0 0.0 0.0 0.0 0.0 0.0 0.0 0.0 0.0 22.3 53.7 13.5 0.0 7.9 11.3 13.6 15.3 10.0 0.0 2.8 0.5 7.2 0.0 5.4 7.8 2.8 5.9 4.1 2.8 6.5 5.9 2.4 4.2 7.1 8.7 9.7 6.9 6.5 7.3 3.8 7.1 17.8 28.4 19.1
0.0 0.0 0.0 0.0 0.0 0.0 0.0 0.0 0.0 0.0 0.0 0.0 38.5 43.0 0.0 36.5 22.0 10.5 11.0 10.1 7.8 7.9 4.6 0.5 6.5 3.5 4.3 10.6 7.1 4.5 4.6 6.2 9.1 0.4 3.7 12.7 12.4 5.6 4.7 1.9 1.4 3.1 3.6 2.7 11.2 6.8 12.6
0.0 0.0 0.0 0.0 0.0 0.0 0.0 0.0 0.0 0.0 0.0 0.0 75.0 21.2 4.1 7.0 4.0 13.8 9.8 13.6 5.6 5.5 11.0 7.8 8.1 3.5 2.9 6.6 3.5 7.4 4.9 2.8 8.4 0.3 9.1 11.8 14.6 9.4 12.9 3.4 4.8 7.7 5.0 3.2 5.2 4.6 4.3
0.0 0.0 0.0 0.0 0.0 0.0 0.0 0.0 0.0 0.0 0.0 13.9 6.7 0.0 13.7 5.8 4.5 10.8 12.6 9.5 7.6 10.3 3.3 2.1 4.6 6.5 5.5 4.2 0.9 0.6 0.2 0.1 1.0 6.2 7.4 13.5 19.7 18.9 19.1 4.7 6.8 14.2 6.7 4.3 3.6 1.6 1.5
0.0 0.0 0.0 0.0 0.0 0.0 0.0 0.0 0.0 0.0 0.0 0.0 0.0 0.0 19.7 23.1 9.1 6.2 4.3 2.5 5.9 6.9 15.4 3.7 2.5 5.9 0.0 0.1 0.0 0.0 0.0 2.2 0.0 2.6 2.5 13.7 16.0 23.1 23.6 9.5 22.0 6.0 3.2 1.7 0.7 0.6 0.3
0.0 0.0 0.0 0.0 0.0 0.0 0.0 0.0 0.0 0.0 0.0 0.0 0.0 0.0 15.1 23.1 4.5 6.2 4.6 4.7 3.1 3.8 7.4 8.5 4.0 0.3 0.0 1.1 11.7 20.6 18.7 17.9 12.9 6.8 6.6 5.0 9.3 23.3 22.3 15.9 9.6 1.8 0.3 0.6 6.6 4.5 0.4
0.0 0.0 0.0 0.0 0.0 0.0 0.0 0.0 0.0 0.0 0.0 0.0 0.0 0.0 2.0 28.2 9.8 0.7 4.7 1.5 4.2 8.1 8.2 6.1 2.9 0.0 0.0 8.8 22.2 26.6 17.1 10.6 7.9 5.5 3.6 4.6 7.2 19.0 23.7 19.1 10.9 0.2 0.1 0.0 0.2 12.8 0.5
0.0 0.0 0.0 0.0 0.0 0.0 0.0 0.0 0.0 0.0 0.0 0.0 0.0 0.0 0.4 36.3 2.0 0.8 5.7 6.7 0.9 2.7 9.3 2.6 2.4 5.3 0.4 20.6 31.3 23.6 13.4 3.9 5.9 2.8 8.2 12.5 19.6 27.9 19.4 17.6 3.4 0.6 0.2 0.0 12.4 11.8 4.7
0.0 0.0 0.0 0.0 0.0 0.0 0.0 0.0 0.0 0.0 0.0 0.0 0.0 0.0 1.8 37.0 4.7 0.0 0.0 0.2 2.7 2.1 10.0 4.5 14.6 10.4 16.3 19.2 18.8 15.3 16.5 10.6 8.1 3.0 2.9 5.2 18.3 19.0 17.8 23.9 10.3 0.0 1.0 4.8 3.0 5.5 7.3
0.0 0.0 0.0 0.0 0.0 0.0 0.0 0.0 0.0 0.0 0.0 0.0 5.9 0.0 0.0 10.6 9.4 0.0 0.0 0.0 0.0 0.0 1.8 3.8 6.4 8.7 11.8 16.1 13.8 10.5 10.4 7.2 9.0 11.3 1.7 6.8 6.2 12.8 12.9 10.0 2.4 0.8 1.3 1.8 1.3 4.4 6.7

GFSGBSN_prec_snow_267.txt.gz
Snowfall_Accumulation
0.0 0.0 0.0 0.0 0.0 0.0 0.0 0.0 0.0 0.0 0.0 0.0 0.0 0.0 0.0 0.0 0.0 0.0 0.0 0.0 0.0 0.0 0.0 0.0 0.0 0.0 0.0 0.0 0.0 0.0 0.0 0.0 0.0 0.0 0.0 0.0 0.0 0.0 0.0 0.0 0.0 0.0 0.0 0.0 0.0 0.0 0.0
0.0 0.0 0.0 0.0 0.0 0.0 0.0 0.0 0.0 0.0 0.0 0.0 0.0 0.0 0.0 0.0 0.0 0.0 0.0 0.0 0.0 0.0 0.0 0.0 0.0 0.0 0.0 0.0 0.0 0.0 0.0 0.0 0.0 0.0 0.0 0.0 0.0 0.0 0.0 0.0 0.0 0.0 0.0 0.0 0.0 0.0 0.0
0.0 0.0 0.0 0.0 0.0 0.0 0.0 0.0 0.0 0.0 0.0 0.0 0.0 0.0 0.0 0.0 0.0 0.0 0.0 0.0 0.0 0.0 0.0 0.0 0.0 0.0 0.0 0.0 0.0 0.0 0.0 0.0 0.0 0.0 0.0 0.0 0.0 0.0 0.0 0.0 0.0 0.0 0.0 0.0 0.0 0.0 0.0
0.0 0.0 0.0 0.0 0.0 0.0 0.0 0.0 0.0 0.0 0.0 0.0 0.0 0.0 0.0 0.0 0.0 0.0 0.0 0.0 0.0 0.0 0.0 0.0 0.0 0.0 0.0 0.0 0.0 0.0 0.0 0.0 0.0 0.0 0.0 0.0 0.0 0.0 0.0 0.0 0.0 0.0 0.0 0.0 0.0 0.0 0.0
0.0 0.0 0.0 0.0 0.0 0.0 0.0 0.0 0.0 0.0 0.0 0.0 0.0 0.0 0.0 0.0 0.0 0.0 0.0 0.0 0.0 0.0 0.0 0.0 0.0 0.0 0.0 0.0 0.0 0.0 0.0 0.0 0.0 0.0 0.0 0.0 0.0 0.0 0.0 0.0 0.0 0.0 0.0 0.0 0.0 0.0 0.0
0.0 0.0 0.0 0.0 0.0 0.0 0.0 0.0 0.0 0.0 0.0 0.0 0.0 0.0 0.0 0.0 0.0 0.0 0.0 0.0 0.0 0.0 0.0 0.0 0.0 0.0 0.0 0.0 0.0 0.0 0.0 0.0 0.0 0.0 0.0 0.0 0.0 0.0 0.0 0.0 0.0 0.0 0.0 0.0 0.0 0.0 0.0
0.0 0.0 0.0 0.0 0.0 0.0 0.0 0.0 0.0 0.0 0.0 0.0 0.0 0.0 0.0 0.0 0.0 0.0 0.0 0.0 0.0 0.0 0.0 0.0 0.0 0.0 0.0 0.0 0.0 0.0 0.0 0.0 0.0 0.0 0.0 0.0 0.0 0.0 0.0 0.0 0.0 0.0 0.0 0.0 0.0 0.0 0.0
0.0 0.0 0.0 0.0 0.0 0.0 0.0 0.0 0.0 0.0 0.0 0.0 0.0 0.0 0.0 0.0 0.0 0.0 0.0 0.0 0.0 0.0 0.6 0.0 0.0 0.0 0.0 0.0 0.0 0.0 0.0 0.0 0.0 0.0 0.0 0.0 0.0 0.0 0.0 0.0 0.0 0.0 0.0 0.0 0.0 0.0 0.0
0.0 0.0 0.0 0.0 0.0 0.0 0.0 0.0 0.0 0.0 0.0 0.0 0.0 0.0 0.0 0.0 0.0 0.0 0.0 0.0 0.0 0.0 2.7 0.0 0.0 0.0 0.0 0.0 0.0 0.0 0.0 0.0 0.0 0.2 0.0 0.0 0.0 0.0 0.0 0.0 0.0 0.0 0.5 0.0 0.2 0.0 0.0
0.0 0.0 0.0 0.0 0.0 0.0 0.0 0.0 0.0 0.0 0.0 0.0 0.0 0.0 0.0 0.0 0.0 0.0 0.0 0.0 0.0 0.0 6.9 0.0 0.2 0.0 0.0 0.0 0.0 0.0 0.0 0.0 0.0 0.0 0.3 0.1 0.0 0.0 0.0 0.0 0.4 0.3 0.0 0.0 0.0 0.2 0.6
0.0 0.0 0.0 0.0 0.0 0.0 0.0 0.0 0.0 0.0 0.0 0.0 0.0 0.0 0.0 0.0 0.0 0.0 0.0 0.0 0.0 0.0 34.5 0.3 0.0 0.0 0.0 0.0 0.0 0.0 0.0 0.0 0.0 0.0 0.4 0.4 0.1 0.2 0.6 0.2 0.5 0.1 0.0 0.0 0.0 0.0 0.6
0.0 0.0 0.0 0.0 0.0 0.0 0.0 0.0 0.0 0.0 0.0 0.0 0.0 0.0 0.0 0.0 0.0 0.0 0.0 0.0 0.0 37.3 45.6 1.3 0.0 0.0 0.0 0.0 0.0 0.0 0.0 0.0 0.0 0.0 0.0 0.0 0.0 0.0 0.5 0.0 0.0 0.0 0.2 0.0 0.1 0.9 3.3
0.0 0.0 0.0 0.0 0.0 0.0 0.0 0.0 0.0 0.0 0.0 0.0 0.0 0.0 0.0 0.0 0.0 0.0 0.0 0.0 58.6 61.5 0.0 2.1 0.0 0.0 0.0 0.0 0.0 0.2 0.9 0.3 0.2 2.3 1.6 0.0 0.4 0.0 0.0 0.4 0.0 0.5 0.6 6.6 5.7 5.9 3.8
0.0 0.0 0.0 0.0 0.0 0.0 0.0 0.0 0.0 0.0 0.0 0.0 0.0 0.0 0.0 0.0 0.0 0.0 0.0 13.3 70.5 12.0 3.6 0.1 0.0 0.0 0.7 0.0 0.0 0.0 0.5 0.8 0.0 0.0 0.6 2.3 2.4 0.7 0.1 2.8 0.4 0.1 0.7 3.4 5.6 2.4 0.5
0.0 0.0 0.0 0.0 0.0 0.0 0.0 0.0 0.0 0.0 0.0 0.0 0.0 0.0 0.0 0.0 0.0 0.0 6.3 85.1 51.0 1.3 0.0 0.0 0.0 1.8 2.3 0.7 0.2 0.0 1.6 2.0 1.5 0.1 4.3 5.3 2.2 0.0 0.5 0.0 0.1 1.2 4.0 0.8 5.6 1.8 4.2
0.0 0.0 0.0 0.0 0.0 0.0 0.0 0.0 0.0 0.0 0.0 0.0 0.0 0.0 0.0 0.0 0.0 0.0 36.7 64.0 23.7 0.0 0.9 0.0 2.3 1.2 2.5 2.0 1.8 2.3 1.6 4.1 2.5 2.4 0.0 3.3 8.5 0.7 0.1 0.0 0.0 1.2 1.1 8.1 12.8 25.8 15.2
0.0 0.0 0.0 0.0 0.0 0.0 0.0 0.0 0.0 0.0 0.0 0.0 0.0 8.8 0.0 0.0 0.0 2.5 62.9 18.8 8.3 0.0 0.0 2.2 2.4 4.3 1.0 2.0 5.1 4.6 4.6 2.7 4.7 1.9 0.6 1.9 8.4 1.6 0.1 2.0 3.1 0.6 3.9 7.3 9.5 15.0 16.8
0.0 0.0 0.0 0.0 0.0 0.0 0.0 0.0 0.0 0.0 0.0 0.0 0.0 40.8 0.0 0.0 32.5 39.1 39.6 15.3 1.8 0.1 0.0 2.7 1.7 1.6 3.5 2.9 3.2 5.3 7.1 5.0 0.9 1.5 3.1 3.5 7.7 10.2 1.2 0.4 0.1 0.5 7.7 11.8 45.7 39.5 28.3
0.0 0.0 0.0 0.0 0.0 0.0 0.0 0.0 0.0 0.0 0.0 0.0 16.3 22.9 0.0 0.0 55.1 39.7 12.3 15.7 5.7 4.2 3.1 5.8 3.5 0.9 1.6 2.1 7.1 4.5 4.1 0.0 2.4 5.6 6.9 7.0 10.9 13.7 6.3 1.6 0.1 6.8 9.6 9.7 14.3 31.1 29.6
0.0 0.0 0.0 0.0 0.0 0.0 0.0 0.0 0.0 0.0 0.0 0.0 22.3 53.7 13.5 0.0 7.9 11.3 13.6 15.3 10.0 0.0 2.8 0.5 7.2 0.0 5.4 7.8 2.8 5.9 4.1 2.8 6.5 5.9 2.4 4.2 7.1 8.7 9.7 6.9 6.5 7.3 3.8 7.1 17.8 28.4 19.1
0.0 0.0 0.0 0.0 0.0 0.0 0.0 0.0 0.0 0.0 0.0 0.0 38.5 43.0 0.0 36.6 22.1 10.5 11.0 10.1 7.8 7.9 4.6 0.5 6.5 3.5 4.3 10.6 7.1 4.5 4.6 6.2 9.1 0.4 3.7 12.7 12.4 5.6 4.7 1.9 1.4 3.1 3.6 2.7 11.2 6.8 12.6
0.0 0.0 0.0 0.0 0.0 0.0 0.0 0.0 0.0 0.0 0.0 0.0 75.4 21.2 4.1 7.0 4.0 13.8 9.8 13.6 5.6 5.5 11.0 7.8 8.1 3.5 2.9 6.6 3.5 7.4 4.9 2.8 8.4 0.3 9.1 11.8 14.6 9.4 12.9 3.4 4.8 7.7 5.0 3.2 5.2 4.6 4.3
0.0 0.0 0.0 0.0 0.0 0.0 0.0 0.0 0.0 0.0 0.0 16.7 6.7 0.0 13.7 5.8 4.5 10.8 12.6 9.5 7.6 10.3 3.3 2.1 4.6 6.5 5.5 4.2 0.9 0.6 0.2 0.1 1.0 6.2 7.4 13.5 19.7 18.9 19.1 4.7 6.8 14.2 6.7 4.3 3.6 1.6 1.5
0.0 0.0 0.0 0.0 0.0 0.0 0.0 0.0 0.0 0.0 0.0 0.0 0.0 0.0 19.8 23.2 9.1 6.2 4.3 2.5 5.9 6.9 15.4 3.7 2.5 5.9 0.0 0.1 0.0 0.0 0.0 2.2 0.0 2.6 2.5 13.7 16.0 23.1 23.6 9.5 22.0 6.0 3.2 1.7 0.7 0.6 0.3
0.0 0.0 0.0 0.0 0.0 0.0 0.0 0.0 0.0 0.0 0.0 0.0 0.0 1.6 15.8 23.4 4.5 6.2 4.6 4.7 3.1 3.8 7.4 8.5 4.0 0.3 0.0 1.1 11.7 20.6 18.7 17.9 12.9 6.8 6.6 5.0 9.3 23.3 22.3 15.9 9.6 1.8 0.3 0.6 6.6 4.5 0.4
0.0 0.0 0.0 0.0 0.0 0.0 0.0 0.0 0.0 0.0 0.0 0.0 0.0 0.0 3.5 29.0 9.8 0.7 4.7 1.5 4.2 8.1 8.2 6.1 2.9 0.0 0.0 8.8 22.2 26.6 17.1 10.6 7.9 5.5 3.6 4.6 7.2 19.0 23.7 19.1 10.9 0.2 0.1 0.0 0.2 12.8 0.5
0.0 0.0 0.0 0.0 0.0 0.0 0.0 0.0 0.0 0.0 0.0 0.0 0.0 0.0 2.3 37.4 2.2 0.8 5.7 6.7 0.9 2.7 9.3 2.6 2.4 5.3 0.4 20.6 31.3 23.6 13.4 3.9 5.9 2.8 8.2 12.5 19.6 27.9 19.4 17.6 3.4 0.6 0.2 0.0 12.4 11.8 4.7
0.0 0.0 0.0 0.0 0.0 0.0 0.0 0.0 0.0 0.0 0.0 0.0 0.0 0.0 3.6 38.2 4.7 0.0 0.0 0.2 2.7 2.1 10.0 4.5 14.6 10.4 16.3 19.2 18.8 15.3 16.5 10.6 8.1 3.0 2.9 5.2 18.3 19.0 17.8 23.9 10.3 0.0 1.0 4.8 3.0 5.5 7.3
0.0 0.0 0.0 0.0 0.0 0.0 0.0 0.0 0.0 0.0 0.0 0.0 5.9 0.0 0.0 12.4 9.4 0.0 0.0 0.0 0.0 0.0 1.8 3.8 6.4 8.7 11.8 16.1 13.8 10.5 10.4 7.2 9.0 11.3 1.7 6.8 6.2 12.8 12.9 10.0 2.4 0.8 1.3 1.8 1.3 4.4 6.7